User: anonymous   Login
Location: Dompnac
(44.5644°N, 4.1026°E)
Time: 09:47:37
(UTC+00:00)
Language:

Cosmos 1707 - Orbit

View from above orbital plane
View from above orbital plane
View from above satellite
View from above satellite

Ground track
Ground track

The orbit data is extracted from the following two-line orbital elements,

1 16326U 85113A   20336.91929822  .00001037  00000-0  54712-4 0  9996
2 16326  82.5128  45.7029 0008946 250.7748 109.2516 15.14437225908266
Epoch (UTC): 01 December 2020 22:03:47
Eccentricity: 0.0008946
inclination: 82.5128°
perigee height: 516 km
apogee height: 529 km
right ascension of ascending node: 45.7029°
argument of perigee: 250.7748°
revolutions per day: 15.14437225
mean anomaly at epoch: 109.2516°
orbit number at epoch: 90826

The dashed part of the orbit path shows where the satellite is in the earth's shadow,  

DLR